Simultaneous Nadir Overpasses (SNOs) Predictions

Prediction of SNOs between AQUA and METOP-A Satellite Orbit:

Table of predicted SNOs for the next 14.0 days since TLE Epoch: 5/30/2015
Index Date (AQUA) Time (AQUA) Lat,Lon (AQUA) SZA (AQUA ) Date (METOP-A) Time (METOP-A) Lat,Lon (METOP-A) SZA (METOP-A ) Distance(km) Time Diff (sec)
1 05/31/2015 11:55:20 73.88, -4.51 51.96 05/31/2015 11:54:54 73.89, -4.56 51.98 1.98 26
2 05/31/2015 12:44:47 -73.95, 162.99 127.98 05/31/2015 12:45:34 -73.96, 162.94 127.97 2.50 47
3 06/03/2015 07:29:38 73.92, 61.83 51.63 06/03/2015 07:29:14 73.91, 61.90 51.62 2.42 24
4 06/03/2015 08:19:05 -73.98,-130.67 128.31 06/03/2015 08:19:54 -73.99,-130.59 128.32 2.54 49
5 06/06/2015 02:14:15 -73.27, -37.99 129.38 06/06/2015 02:13:08 -73.23, -40.59 129.32 83.19 67
6 06/06/2015 03:03:55 73.93, 128.23 51.32 06/06/2015 03:03:34 73.93, 128.34 51.32 3.50 21
7 06/06/2015 03:53:22 -73.99, -64.27 128.62 06/06/2015 03:54:15 -73.96, -64.26 128.66 3.81 53
8 06/08/2015 21:48:33 -73.40, 28.16 129.51 06/08/2015 21:47:25 -73.35, 26.08 129.48 66.49 68
9 06/08/2015 22:38:10 73.91,-165.29 51.03 06/08/2015 22:37:54 73.89,-165.34 51.02 2.32 16
10 06/08/2015 23:27:37 -73.97, 2.21 128.91 06/08/2015 23:28:34 -73.97, 2.19 128.92 0.93 57
11 06/11/2015 17:22:52 -73.56, 94.27 129.56 06/11/2015 17:21:42 -73.51, 92.85 129.55 44.94 70
12 06/11/2015 18:12:26 73.91, -98.86 50.81 06/11/2015 18:12:14 73.90, -98.91 50.81 1.80 12
13 06/11/2015 19:01:53 -73.97, 68.65 129.13 06/11/2015 19:02:54 -73.98, 68.62 129.12 2.07 61




NCC Satellite Simultaneous Nadir Overpasses (SNOs) Prediction Service
